TimeEST,TemperatureF,Dew PointF,Humidity,Sea Level PressureIn,VisibilityMPH,Wind Direction,Wind SpeedMPH,Gust SpeedMPH,PrecipitationIn,Events,Conditions,WindDirDegrees,DateUTC
12:00 AM,24.8,19.4,80,30.09,1.8,South,5.8,-,0.00,Snow,Light Snow,180,2012-12-17 05:00:00
12:13 AM,24.8,19.4,80,30.09,3.0,SSW,4.6,-,0.01,Snow,Light Snow,200,2012-12-17 05:13:00
1:52 AM,21.9,17.1,82,30.15,8.0,NNW,6.9,-,0.01,Snow,Light Snow,340,2012-12-17 06:52:00
2:52 AM,21.9,18.0,85,30.14,10.0,NNW,6.9,-,N/A,,Overcast,340,2012-12-17 07:52:00
3:52 AM,21.9,17.1,82,30.12,10.0,North,8.1,-,0.00,,Overcast,350,2012-12-17 08:52:00
4:49 AM,21.2,17.6,86,30.04,2.0,NNW,5.8,-,0.00,Snow,Light Snow,340,2012-12-17 09:49:00
4:52 AM,21.9,17.1,82,30.11,2.0,NNW,5.8,-,0.00,Snow,Light Snow,340,2012-12-17 09:52:00
5:07 AM,21.2,17.6,86,30.04,3.0,Variable,3.5,-,0.00,Snow,Light Snow,0,2012-12-17 10:07:00
5:18 AM,21.2,17.6,86,30.04,2.5,NNW,6.9,-,0.01,Snow,Light Snow,340,2012-12-17 10:18:00
5:35 AM,21.2,17.6,86,30.04,2.0,NNW,3.5,-,0.01,Snow,Light Snow,330,2012-12-17 10:35:00
5:42 AM,21.2,17.6,86,30.04,2.0,North,3.5,-,0.01,Snow,Light Snow,350,2012-12-17 10:42:00
5:49 AM,21.2,17.6,86,30.04,1.2,NNW,3.5,-,0.01,Snow,Light Snow,340,2012-12-17 10:49:00
5:50 AM,21.9,18.0,85,30.11,1.2,NNW,4.6,-,0.01,Snow,Light Snow,340,2012-12-17 10:50:00
6:28 AM,21.2,19.4,93,30.05,1.0,North,3.5,-,0.03,Snow,Light Snow,350,2012-12-17 11:28:00
6:39 AM,21.2,19.4,93,30.04,1.0,North,3.5,-,0.03,Snow,Light Snow,350,2012-12-17 11:39:00
6:52 AM,21.9,19.0,89,30.11,1.0,NNW,3.5,-,0.04,Snow,Light Snow,340,2012-12-17 11:52:00
7:33 AM,23.0,19.4,86,30.05,1.2,Calm,Calm,-,0.03,Snow,Light Snow,0,2012-12-17 12:33:00
7:52 AM,23.0,19.0,85,30.11,1.8,Calm,Calm,-,0.04,Snow,Light Snow,0,2012-12-17 12:52:00
8:26 AM,23.0,19.4,86,30.05,1.0,Calm,Calm,-,0.00,Snow,Light Snow,0,2012-12-17 13:26:00
8:52 AM,24.1,19.9,84,30.11,0.8,Calm,Calm,-,0.01,Snow,Light Snow,0,2012-12-17 13:52:00
9:10 AM,24.8,21.2,86,30.04,0.5,Calm,Calm,-,0.01,Fog-Snow,Snow,0,2012-12-17 14:10:00
9:38 AM,24.8,21.2,86,30.03,1.0,Calm,Calm,-,0.03,Snow,Light Snow,0,2012-12-17 14:38:00
9:52 AM,26.1,23.0,88,30.08,1.8,Calm,Calm,-,0.03,Snow,Light Snow,0,2012-12-17 14:52:00
10:09 AM,28.4,24.8,86,30.02,2.0,NNW,3.5,-,0.00,Snow,Light Snow,330,2012-12-17 15:09:00
10:40 AM,28.4,24.8,86,30.01,3.0,Calm,Calm,-,0.00,Snow,Light Snow,0,2012-12-17 15:40:00
10:52 AM,28.9,24.1,82,30.06,8.0,Calm,Calm,-,0.00,,Overcast,0,2012-12-17 15:52:00
11:09 AM,28.4,24.8,86,30.00,10.0,Calm,Calm,-,N/A,,Overcast,0,2012-12-17 16:09:00
11:52 AM,30.0,24.1,79,30.04,5.0,Calm,Calm,-,0.00,Snow,Light Snow,0,2012-12-17 16:52:00
12:18 PM,30.2,24.8,80,29.98,2.5,Calm,Calm,-,0.00,Snow,Light Snow,0,2012-12-17 17:18:00
12:26 PM,30.2,24.8,80,29.98,4.0,SSE,3.5,-,0.00,Snow,Light Snow,150,2012-12-17 17:26:00
12:52 PM,30.0,26.1,85,30.02,1.0,Calm,Calm,-,0.00,Snow,Light Snow,0,2012-12-17 17:52:00
1:06 PM,30.2,26.6,86,29.97,1.8,Calm,Calm,-,0.01,Snow,Light Snow,0,2012-12-17 18:06:00
1:14 PM,30.2,26.6,86,29.97,2.0,Calm,Calm,-,0.01,Snow,Light Snow,0,2012-12-17 18:14:00
1:40 PM,30.2,26.6,86,29.95,6.0,Calm,Calm,-,0.01,Snow,Light Snow,0,2012-12-17 18:40:00
1:52 PM,30.9,26.1,82,30.01,10.0,NW,4.6,-,0.01,,Overcast,310,2012-12-17 18:52:00
2:52 PM,30.0,26.1,85,30.03,8.0,NNW,5.8,-,0.00,,Overcast,340,2012-12-17 19:52:00
3:22 PM,28.4,26.6,93,29.96,2.0,NW,3.5,-,0.00,Snow,Light Snow,310,2012-12-17 20:22:00
3:52 PM,28.9,26.1,89,30.01,3.0,NNW,4.6,-,0.00,Snow,Light Snow,330,2012-12-17 20:52:00
4:52 PM,28.9,26.1,89,30.01,10.0,NNW,3.5,-,0.01,,Overcast,340,2012-12-17 21:52:00
7:52 PM,30.0,26.1,85,30.01,10.0,Calm,Calm,-,0.00,,Overcast,0,2012-12-18 00:52:00
8:52 PM,30.9,26.1,82,30.01,10.0,Calm,Calm,-,0.00,,Overcast,0,2012-12-18 01:52:00
9:28 PM,30.2,26.6,86,29.94,10.0,NNW,4.6,-,N/A,,Overcast,330,2012-12-18 02:28:00
9:52 PM,30.0,26.1,85,30.00,9.0,Calm,Calm,-,0.00,Snow,Light Snow,0,2012-12-18 02:52:00
10:11 PM,30.2,26.6,86,29.94,10.0,Calm,Calm,-,0.00,,Overcast,0,2012-12-18 03:11:00
10:52 PM,30.0,27.0,88,29.98,10.0,Calm,Calm,-,0.00,,Overcast,0,2012-12-18 03:52:00
11:14 PM,30.2,26.6,86,29.91,10.0,NW,3.5,-,0.00,Snow,Light Snow,310,2012-12-18 04:14:00
11:52 PM,30.0,27.0,88,29.95,7.0,Calm,Calm,-,0.00,Snow,Light Snow,0,2012-12-18 04:52:00